Location: Geremba
(10.4250°N, 67.2394°W)
Time: 21:10:52
(UTC+00:00)

Cosmos 2278 Rocket - Pass Details

Date: 23 May 2024
Orbit: 840 x 845 km, 71.0° (Epoch: 25 June)

Event Time Altitude Azimuth Distance (km) Brightness Sun altitude
Rises 01:03:18 0° 332° (NNW) 3,389 6.2 -31.3°
Reaches altitude 10° 01:05:51 10° 325° (NW) 2,454 5.4 -31.9°
Maximum altitude 01:11:06 41° 256° (WSW) 1,198 3.1 -33.0°
Enters shadow 01:11:06 41° 256° (WSW) 1,198 3.1 -33.0°
